| time (UTC) | temp F | wind direction | speed MPH | gust MPH | rain 1hr in | rain 24hr in | rain mn in | humidity % | barometer mb |
| 20260504190658 | 70 | 241 | 3.0 | 10.0 | 0.00 | 0.00 | 0.00 | 39 | 1005.1 |
| 20260504190154 | 71 | 239 | 3.0 | 12.0 | 0.00 | 0.00 | 0.00 | 38 | 1005.0 |
| 20260504185651 | 71 | 108 | 0.0 | 6.0 | 0.00 | 0.00 | 0.00 | 39 | 1005.0 |
| 20260504185148 | 70 | 117 | 4.0 | 9.0 | 0.00 | 0.00 | 0.00 | 39 | 1005.0 |
| 20260504184644 | 71 | 260 | 7.0 | 14.0 | 0.00 | 0.00 | 0.00 | 36 | 1005.1 |
| 20260504184139 | 70 | 48 | 6.0 | 15.0 | 0.00 | 0.00 | 0.00 | 38 | 1005.1 |
| 20260504183636 | 70 | 286 | 5.0 | 15.0 | 0.00 | 0.00 | 0.00 | 38 | 1005.2 |
| 20260504183133 | 71 | 229 | 7.0 | 19.0 | 0.00 | 0.00 | 0.00 | 37 | 1005.4 |
| 20260504182631 | 71 | 267 | 11.0 | 20.0 | 0.00 | 0.00 | 0.00 | 37 | 1005.5 |
| 20260504182128 | 71 | 166 | 4.0 | 19.0 | 0.00 | 0.00 | 0.00 | 37 | 1005.3 |
| 20260504181626 | 71 | 11 | 2.0 | 11.0 | 0.00 | 0.00 | 0.00 | 39 | 1005.2 |
| 20260504181123 | 71 | 309 | 5.0 | 10.0 | 0.00 | 0.00 | 0.00 | 38 | 1005.3 |
| 20260504180622 | 71 | 249 | 9.0 | 17.0 | 0.00 | 0.00 | 0.00 | 37 | 1005.6 |
| 20260504180121 | 70 | 248 | 4.0 | 12.0 | 0.00 | 0.00 | 0.00 | 38 | 1005.5 |
| 20260504175617 | 68 | 246 | 13.0 | 13.0 | 0.00 | 0.00 | 0.00 | 39 | 1005.5 |
| 20260504175114 | 70 | 274 | 10.0 | 14.0 | 0.00 | 0.00 | 0.00 | 39 | 1005.5 |
| 20260504174612 | 71 | 151 | 4.0 | 11.0 | 0.00 | 0.00 | 0.00 | 40 | 1005.5 |
| 20260504174108 | 71 | 251 | 5.0 | 9.0 | 0.00 | 0.00 | 0.00 | 37 | 1005.5 |
| 20260504173605 | 70 | 251 | 2.0 | 14.0 | 0.00 | 0.00 | 0.00 | 42 | 1005.5 |
| 20260504173103 | 70 | 181 | 4.0 | 14.0 | 0.00 | 0.00 | 0.00 | 40 | 1005.6 |
| 20260504172559 | 70 | 258 | 12.0 | 14.0 | 0.00 | 0.00 | 0.00 | 40 | 1005.8 |
| 20260504172056 | 69 | 233 | 10.0 | 13.0 | 0.00 | 0.00 | 0.00 | 40 | 1005.6 |
| 20260504171552 | 69 | 149 | 7.0 | 13.0 | 0.00 | 0.00 | 0.00 | 40 | 1005.5 |
| 20260504171050 | 68 | 265 | 6.0 | 16.0 | 0.00 | 0.00 | 0.00 | 39 | 1006.0 |
| 20260504170545 | 66 | 293 | 6.0 | 16.0 | 0.00 | 0.00 | 0.00 | 42 | 1005.8 |
| 20260504150929 | 64 | 26 | 3.0 | 17.0 | 0.00 | 0.00 | 0.00 | 43 | 1007.1 |
| 20260504150426 | 63 | 203 | 8.0 | 8.0 | 0.00 | 0.00 | 0.00 | 44 | 1007.1 |
| 20260504140852 | 58 | 265 | 5.0 | 15.0 | 0.00 | 0.00 | 0.00 | 45 | 1008.0 |
| 20260504140349 | 59 | 243 | 3.0 | 7.0 | 0.00 | 0.00 | 0.00 | 47 | 1008.1 |
| 20260504130817 | 54 | 268 | 4.0 | 6.0 | 0.00 | 0.00 | 0.00 | 52 | 1008.7 |
| 20260504130314 | 53 | 226 | 2.0 | 7.0 | 0.00 | 0.00 | 0.00 | 52 | 1008.8 |
| 20260504120237 | 45 | 53 | 1.0 | 3.0 | 0.00 | 0.00 | 0.00 | 86 | 1009.1 |
| 20260504110704 | 38 | 58 | 2.0 | 3.0 | 0.00 | 0.00 | 0.00 | 90 | 1009.4 |
| 20260504110201 | 37 | 101 | 2.0 | 2.0 | 0.00 | 0.00 | 0.00 | 91 | 1009.1 |
| 20260504100125 | 32 | 63 | 2.0 | 2.0 | 0.00 | 0.00 | 0.00 | 98 | 1009.0 |
| 20260504081518 | 34 | 88 | 1.0 | 2.0 | 0.00 | 0.00 | 0.00 | 94 | 1009.1 |
| 20260504081013 | 34 | 99 | 2.0 | 2.0 | 0.00 | 0.00 | 0.00 | 94 | 1009.1 |
| 20260504080510 | 34 | 80 | 1.0 | 2.0 | 0.00 | 0.00 | 0.00 | 94 | 1009.1 |
| 20260504050323 | 42 | 110 | 0.0 | 1.0 | 0.00 | 0.00 | 0.00 | 79 | 1009.1 |
| 20260504045820 | 42 | 38 | 0.0 | 1.0 | 0.00 | 0.00 | 0.00 | 79 | 1009.4 |
| 20260504045319 | 43 | 331 | 0.0 | 1.0 | 0.00 | 0.00 | 0.00 | 79 | 1009.3 |
| 20260504044817 | 43 | 21 | 0.0 | 2.0 | 0.00 | 0.00 | 0.00 | 78 | 1009.4 |
| 20260504044314 | 43 | 347 | 0.0 | 1.0 | 0.00 | 0.00 | 0.00 | 77 | 1009.3 |
| 20260504043812 | 43 | 178 | 1.0 | 2.0 | 0.00 | 0.00 | 0.00 | 77 | 1009.0 |
| 20260504043308 | 44 | 304 | 0.0 | 1.0 | 0.00 | 0.00 | 0.00 | 76 | 1009.1 |
| 20260504042806 | 44 | 278 | 2.0 | 2.0 | 0.00 | 0.00 | 0.00 | 75 | 1009.1 |
| 20260504042304 | 43 | 126 | 0.0 | 0.0 | 0.00 | 0.00 | 0.00 | 76 | 1009.3 |
| 20260504041759 | 44 | 102 | 0.0 | 2.0 | 0.00 | 0.00 | 0.00 | 74 | 1009.3 |
| 20260504041255 | 44 | 66 | 0.0 | 0.0 | 0.00 | 0.00 | 0.00 | 73 | 1009.2 |
| 20260504040751 | 44 | 119 | 0.0 | 1.0 | 0.00 | 0.00 | 0.00 | 74 | 1009.3 |
| 20260504040248 | 44 | 132 | 1.0 | 2.0 | 0.00 | 0.00 | 0.00 | 78 | 1009.1 |
| 20260504035744 | 46 | 81 | 0.0 | 2.0 | 0.00 | 0.00 | 0.00 | 75 | 1009.1 |
| 20260504035241 | 46 | 32 | 0.0 | 1.0 | 0.00 | 0.00 | 0.00 | 71 | 1009.1 |
| 20260504034739 | 46 | 76 | 0.0 | 1.0 | 0.00 | 0.00 | 0.00 | 72 | 1009.2 |
| 20260504034236 | 46 | 135 | 0.0 | 2.0 | 0.00 | 0.00 | 0.00 | 72 | 1009.1 |
| 20260504033734 | 46 | 110 | 0.0 | 2.0 | 0.00 | 0.00 | 0.00 | 72 | 1009.3 |
| 20260504033231 | 46 | 166 | 0.0 | 1.0 | 0.00 | 0.00 | 0.00 | 74 | 1009.3 |
| 20260504032728 | 46 | 219 | 0.0 | 2.0 | 0.00 | 0.00 | 0.00 | 73 | 1009.3 |
| 20260504032225 | 46 | 67 | 2.0 | 3.0 | 0.00 | 0.00 | 0.00 | 74 | 1009.2 |
| 20260504031722 | 46 | 340 | 2.0 | 2.0 | 0.00 | 0.00 | 0.00 | 75 | 1009.3 |
| 20260504031219 | 46 | 308 | 0.0 | 2.0 | 0.00 | 0.00 | 0.00 | 77 | 1009.3 |
| 20260504030715 | 46 | 31 | 0.0 | 1.0 | 0.00 | 0.00 | 0.00 | 75 | 1009.0 |
| 20260504030212 | 46 | 65 | 2.0 | 3.0 | 0.00 | 0.00 | 0.00 | 75 | 1009.1 |
| 20260504025709 | 46 | 66 | 1.0 | 1.0 | 0.00 | 0.00 | 0.00 | 75 | 1009.4 |
| 20260504025205 | 46 | 63 | 0.0 | 2.0 | 0.00 | 0.00 | 0.00 | 75 | 1009.4 |
| 20260504024703 | 46 | 106 | 2.0 | 3.0 | 0.00 | 0.00 | 0.00 | 74 | 1009.2 |
| 20260504024159 | 46 | 72 | 2.0 | 2.0 | 0.00 | 0.00 | 0.00 | 74 | 1009.4 |
| 20260504023655 | 46 | 44 | 0.0 | 2.0 | 0.00 | 0.00 | 0.00 | 74 | 1009.5 |
| 20260504023152 | 46 | 93 | 2.0 | 3.0 | 0.00 | 0.00 | 0.00 | 73 | 1009.5 |
| 20260504022648 | 46 | 39 | 3.0 | 3.0 | 0.00 | 0.00 | 0.00 | 73 | 1009.6 |
| 20260504022144 | 46 | 38 | 2.0 | 4.0 | 0.00 | 0.00 | 0.00 | 71 | 1009.6 |
| 20260504021642 | 47 | 64 | 3.0 | 3.0 | 0.00 | 0.00 | 0.00 | 70 | 1009.7 |
| 20260504021138 | 47 | 55 | 0.0 | 1.0 | 0.00 | 0.00 | 0.00 | 71 | 1009.6 |
| 20260504020636 | 47 | 38 | 2.0 | 2.0 | 0.00 | 0.00 | 0.00 | 70 | 1009.5 |
| 20260504020132 | 46 | 72 | 0.0 | 2.0 | 0.00 | 0.00 | 0.00 | 68 | 1009.5 |
| 20260504015628 | 47 | 92 | 2.0 | 3.0 | 0.00 | 0.00 | 0.00 | 68 | 1009.7 |
| 20260504015125 | 46 | 80 | 1.0 | 2.0 | 0.00 | 0.00 | 0.00 | 70 | 1009.4 |
| 20260504014620 | 46 | 77 | 1.0 | 2.0 | 0.00 | 0.00 | 0.00 | 70 | 1009.5 |
| 20260504014118 | 47 | 69 | 2.0 | 2.0 | 0.00 | 0.00 | 0.00 | 67 | 1009.4 |
| 20260504013615 | 47 | 83 | 1.0 | 2.0 | 0.00 | 0.00 | 0.00 | 66 | 1009.3 |
| 20260504013112 | 47 | 93 | 0.0 | 1.0 | 0.00 | 0.00 | 0.00 | 66 | 1009.4 |
| 20260504012609 | 47 | 63 | 0.0 | 1.0 | 0.00 | 0.00 | 0.00 | 64 | 1009.1 |
| 20260504012107 | 47 | 35 | 1.0 | 2.0 | 0.00 | 0.00 | 0.00 | 63 | 1009.2 |
| 20260504011604 | 47 | 50 | 1.0 | 2.0 | 0.00 | 0.00 | 0.00 | 63 | 1009.2 |
| 20260504011100 | 48 | 77 | 1.0 | 2.0 | 0.00 | 0.00 | 0.00 | 64 | 1009.2 |
| 20260504010555 | 48 | 58 | 1.0 | 2.0 | 0.00 | 0.00 | 0.00 | 61 | 1009.2 |
| 20260504010052 | 49 | 37 | 1.0 | 2.0 | 0.00 | 0.00 | 0.00 | 60 | 1009.1 |
| 20260504005549 | 49 | 348 | 0.0 | 2.0 | 0.00 | 0.00 | 0.00 | 59 | 1009.3 |
| 20260504005046 | 49 | 5 | 1.0 | 2.0 | 0.00 | 0.00 | 0.00 | 59 | 1008.7 |
| 20260504004544 | 49 | 333 | 2.0 | 3.0 | 0.00 | 0.00 | 0.00 | 61 | 1008.8 |
| 20260504004041 | 49 | 49 | 2.0 | 3.0 | 0.00 | 0.00 | 0.00 | 59 | 1009.0 |
| 20260504003537 | 50 | 32 | 2.0 | 3.0 | 0.00 | 0.00 | 0.00 | 62 | 1009.0 |
| 20260504003034 | 50 | 65 | 2.0 | 2.0 | 0.00 | 0.00 | 0.00 | 58 | 1008.9 |
| 20260504002531 | 51 | 108 | 2.0 | 2.0 | 0.00 | 0.00 | 0.00 | 58 | 1008.8 |
| 20260504002028 | 51 | 341 | 1.0 | 2.0 | 0.00 | 0.00 | 0.00 | 58 | 1008.7 |
| 20260504001526 | 51 | 86 | 2.0 | 3.0 | 0.00 | 0.00 | 0.00 | 54 | 1008.6 |
| 20260504001022 | 51 | 39 | 2.0 | 2.0 | 0.00 | 0.00 | 0.00 | 60 | 1008.5 |
| 20260504000520 | 51 | 39 | 0.0 | 1.0 | 0.00 | 0.00 | 0.00 | 56 | 1008.4 |
| 20260504000017 | 51 | 15 | 0.0 | 2.0 | 0.00 | 0.00 | 0.00 | 58 | 1008.3 |
| 20260503235515 | 52 | 13 | 0.0 | 1.0 | 0.00 | 0.00 | 0.00 | 59 | 1008.1 |
| 20260503235011 | 52 | 77 | 0.0 | 1.0 | 0.00 | 0.00 | 0.00 | 53 | 1008.3 |
| 20260503234509 | 53 | 58 | 0.0 | 1.0 | 0.00 | 0.00 | 0.00 | 49 | 1008.3 |
| 20260503234007 | 53 | 352 | 0.0 | 1.0 | 0.00 | 0.00 | 0.00 | 47 | 1008.2 |
| 20260503233503 | 54 | 44 | 0.0 | 2.0 | 0.00 | 0.00 | 0.00 | 46 | 1008.2 |
| 20260503232959 | 55 | 227 | 2.0 | 2.0 | 0.00 | 0.00 | 0.00 | 43 | 1008.1 |
| 20260503232456 | 55 | 30 | 2.0 | 2.0 | 0.00 | 0.00 | 0.00 | 43 | 1008.2 |
| 20260503231954 | 55 | 157 | 1.0 | 2.0 | 0.00 | 0.00 | 0.00 | 43 | 1007.9 |
| 20260503231452 | 55 | 215 | 0.0 | 4.0 | 0.00 | 0.00 | 0.00 | 42 | 1008.2 |
| 20260503230948 | 55 | 239 | 4.0 | 6.0 | 0.00 | 0.00 | 0.00 | 40 | 1008.3 |
| 20260503230444 | 55 | 135 | 3.0 | 3.0 | 0.00 | 0.00 | 0.00 | 44 | 1008.0 |
| 20260503225942 | 55 | 82 | 2.0 | 4.0 | 0.00 | 0.00 | 0.00 | 43 | 1008.2 |
| 20260503225439 | 55 | 261 | 1.0 | 3.0 | 0.00 | 0.00 | 0.00 | 42 | 1008.4 |
| 20260503224934 | 56 | 167 | 2.0 | 5.0 | 0.00 | 0.00 | 0.00 | 42 | 1008.2 |
| 20260503224431 | 55 | 225 | 2.0 | 4.0 | 0.00 | 0.00 | 0.00 | 42 | 1008.5 |
| 20260503223929 | 55 | 336 | 2.0 | 5.0 | 0.00 | 0.00 | 0.00 | 41 | 1008.2 |
| 20260503223427 | 55 | 285 | 3.0 | 6.0 | 0.00 | 0.00 | 0.00 | 41 | 1008.3 |
| 20260503222922 | 56 | 32 | 0.0 | 3.0 | 0.00 | 0.00 | 0.00 | 42 | 1008.2 |
| 20260503222421 | 56 | 112 | 2.0 | 3.0 | 0.00 | 0.00 | 0.00 | 43 | 1008.5 |
| 20260503221919 | 55 | 9 | 0.0 | 3.0 | 0.00 | 0.00 | 0.00 | 45 | 1008.4 |
| 20260503221417 | 55 | 110 | 2.0 | 3.0 | 0.00 | 0.00 | 0.00 | 45 | 1008.4 |
| 20260503220913 | 55 | 16 | 4.0 | 5.0 | 0.00 | 0.00 | 0.00 | 42 | 1008.3 |
| 20260503220410 | 56 | 340 | 2.0 | 4.0 | 0.00 | 0.00 | 0.00 | 40 | 1008.4 |
| 20260503215907 | 58 | 320 | 2.0 | 3.0 | 0.00 | 0.00 | 0.00 | 41 | 1008.4 |
| 20260503215404 | 56 | 356 | 2.0 | 5.0 | 0.00 | 0.00 | 0.00 | 40 | 1008.5 |
| 20260503214901 | 56 | 311 | 3.0 | 3.0 | 0.00 | 0.00 | 0.00 | 40 | 1008.5 |
| 20260503214358 | 56 | 296 | 2.0 | 6.0 | 0.00 | 0.00 | 0.00 | 43 | 1008.6 |
| 20260503213856 | 56 | 268 | 6.0 | 13.0 | 0.00 | 0.00 | 0.00 | 40 | 1008.5 |
| 20260503213354 | 57 | 200 | 2.0 | 6.0 | 0.00 | 0.00 | 0.00 | 40 | 1008.7 |
| 20260503212850 | 57 | 299 | 3.0 | 6.0 | 0.00 | 0.00 | 0.00 | 39 | 1008.5 |
| 20260503212348 | 56 | 249 | 3.0 | 5.0 | 0.00 | 0.00 | 0.00 | 40 | 1008.5 |
| 20260503211845 | 57 | 265 | 8.0 | 15.0 | 0.00 | 0.00 | 0.00 | 40 | 1008.5 |
| 20260503211342 | 56 | 115 | 3.0 | 5.0 | 0.00 | 0.00 | 0.00 | 43 | 1008.6 |
| 20260503210837 | 56 | 278 | 6.0 | 6.0 | 0.00 | 0.00 | 0.00 | 42 | 1008.5 |
| 20260503210334 | 56 | 331 | 3.0 | 11.0 | 0.00 | 0.00 | 0.00 | 41 | 1008.4 |
| 20260503205829 | 56 | 136 | 4.0 | 6.0 | 0.00 | 0.00 | 0.00 | 45 | 1008.5 |
| 20260503205326 | 55 | 325 | 0.0 | 4.0 | 0.00 | 0.00 | 0.00 | 44 | 1008.8 |
| 20260503204823 | 54 | 256 | 7.0 | 8.0 | 0.00 | 0.00 | 0.00 | 45 | 1008.8 |
| 20260503204320 | 53 | 70 | 8.0 | 14.0 | 0.00 | 0.00 | 0.00 | 46 | 1008.9 |
| 20260503203817 | 53 | 14 | 5.0 | 17.0 | 0.00 | 0.00 | 0.00 | 46 | 1008.9 |
| 20260503203315 | 54 | 238 | 4.0 | 11.0 | 0.00 | 0.00 | 0.00 | 42 | 1008.8 |
| 20260503202811 | 54 | 299 | 5.0 | 18.0 | 0.00 | 0.00 | 0.00 | 41 | 1008.6 |
| 20260503202310 | 54 | 14 | 1.0 | 7.0 | 0.00 | 0.00 | 0.00 | 41 | 1008.8 |
| 20260503201807 | 54 | 67 | 0.0 | 9.0 | 0.00 | 0.00 | 0.00 | 44 | 1008.7 |
| 20260503201304 | 55 | 263 | 12.0 | 13.0 | 0.00 | 0.00 | 0.00 | 40 | 1008.8 |
| 20260503200802 | 55 | 9 | 2.0 | 5.0 | 0.00 | 0.00 | 0.00 | 40 | 1008.7 |
| 20260503200257 | 55 | 344 | 3.0 | 5.0 | 0.00 | 0.00 | 0.00 | 38 | 1008.6 |
| 20260503195755 | 55 | 314 | 4.0 | 7.0 | 0.00 | 0.00 | 0.00 | 38 | 1008.5 |
| 20260503195251 | 56 | 350 | 3.0 | 4.0 | 0.00 | 0.00 | 0.00 | 38 | 1008.5 |
| 20260503194749 | 58 | 281 | 4.0 | 5.0 | 0.00 | 0.00 | 0.00 | 35 | 1008.6 |
| 20260503194244 | 57 | 314 | 3.0 | 6.0 | 0.00 | 0.00 | 0.00 | 37 | 1008.8 |
| 20260503193741 | 56 | 255 | 6.0 | 10.0 | 0.00 | 0.00 | 0.00 | 34 | 1008.9 |
| 20260503193237 | 55 | 281 | 6.0 | 16.0 | 0.00 | 0.00 | 0.00 | 36 | 1008.9 |
| 20260503192733 | 55 | 259 | 11.0 | 12.0 | 0.00 | 0.00 | 0.00 | 36 | 1008.8 |
| 20260503192228 | 55 | 11 | 4.0 | 5.0 | 0.00 | 0.00 | 0.00 | 37 | 1008.9 |
| 20260503191725 | 56 | 142 | 2.0 | 13.0 | 0.00 | 0.00 | 0.00 | 36 | 1008.8 |
| 20260503191222 | 55 | 332 | 6.0 | 11.0 | 0.00 | 0.00 | 0.00 | 35 | 1008.9 |